Temperature
23 23 23 23 24 25 25 24 24 25 26 26 26 26 26 27 26 26 26 26 25 25 24 23 22 21 21 20 19 19 18 17 16 16 15 15 15 15 15 14 14 13 13 13
24 23 25 26 25 25 24 24 24 26 26 26 26 26 27 27 27 27 27 27 26 26 25 23 22 21 20 20 19 19 18 17 16 16 15 15 15 15 15 14 14 13 13 13
24 25 26 26 26 25 25 25 24 25 26 26 26 26 27 28 28 27 27 27 27 26 25 23 22 21 20 20 19 19 18 17 16 15 15 15 15 15 14 14 14 13 13 13
25 26 26 26 25 25 24 25 26 25 25 24 26 25 27 28 27 27 27 26 26 26 25 24 22 21 20 20 19 18 17 17 16 15 15 15 15 15 14 14 14 14 13 13
24 25 25 25 26 26 25 26 26 26 25 25 26 26 27 27 27 27 27 26 26 26 25 24 23 22 21 20 19 18 17 17 16 15 15 15 14 14 14 14 14 14 14 13
25 26 26 26 27 27 26 26 26 26 25 24 26 26 26 27 27 27 27 27 26 25 25 24 23 21 21 20 19 18 17 16 16 15 15 15 14 14 14 14 14 14 14 14
25 26 27 27 26 26 26 25 24 24 24 24 27 26 26 27 28 28 27 27 26 25 24 23 22 21 20 19 18 18 17 16 16 15 15 15 15 14 14 14 14 14 14 14
25 25 26 27 26 26 26 26 24 22 23 25 26 26 27 28 28 27 27 26 26 25 24 23 22 21 20 19 18 17 17 16 16 15 15 15 15 15 15 14 14 14 14 14
26 26 27 28 28 27 26 26 27 25 25 25 26 27 27 27 27 27 27 26 25 25 24 23 22 21 20 19 18 18 17 16 16 16 15 15 15 15 15 14 14 14 14 14
27 26 27 27 27 27 27 27 26 25 24 23 25 26 26 26 27 27 27 26 26 25 24 23 22 21 20 19 18 18 17 17 16 16 16 15 15 15 15 14 14 14 14 14
28 26 26 26 26 26 26 26 26 26 25 24 23 24 27 27 27 27 27 27 26 25 24 23 22 21 20 19 18 18 17 17 16 16 16 16 15 15 15 14 14 14 14 14
27 27 26 26 28 28 27 27 26 24 24 24 23 25 28 27 27 27 27 27 26 25 24 23 22 21 20 20 19 18 18 17 17 16 16 16 15 15 15 15 14 14 14 14
26 26 25 25 25 26 26 26 26 26 25 24 23 25 28 28 27 27 27 27 26 25 24 23 22 21 21 20 19 19 18 18 17 16 16 16 15 15 15 15 15 14 14 14
25 25 25 24 25 26 26 26 26 25 24 24 24 25 27 27 26 27 27 27 26 25 25 24 23 22 21 20 19 19 18 18 17 17 16 16 16 15 15 15 15 14 14 14
26 25 26 26 27 27 26 26 26 26 25 25 25 25 26 26 26 27 27 27 26 26 25 24 23 22 21 20 20 19 19 18 17 17 16 16 16 16 15 15 15 15 15 14
26 25 25 25 26 27 26 27 26 26 26 26 25 25 26 27 27 26 26 26 26 25 25 24 23 22 21 20 20 19 19 18 17 17 17 16 16 16 16 15 15 15 15 15
25 25 24 24 25 26 25 26 27 26 26 26 25 25 26 26 26 26 26 25 25 25 24 24 24 23 22 21 20 20 19 18 18 17 17 17 16 16 16 15 15 15 15 15
24 24 24 24 24 23 25 28 27 26 26 26 26 25 25 25 26 25 25 25 24 24 24 24 23 23 23 22 21 20 20 19 18 17 17 17 16 16 16 15 15 15 15 15
25 24 23 23 22 23 25 26 27 26 25 26 25 25 25 25 25 25 24 24 24 24 24 23 23 23 23 23 22 21 20 19 18 18 18 17 17 16 16 16 16 16 15 15
25 25 23 23 22 22 24 26 26 25 23 25 24 24 24 24 23 23 23 23 23 23 23 23 23 23 23 23 22 22 21 20 19 18 18 17 17 16 16 16 16 15 15 15
24 23 22 22 22 23 24 25 25 23 22 23 23 22 22 22 22 22 22 22 22 22 22 22 22 22 23 23 22 22 21 20 19 19 18 17 17 17 16 16 16 15 15 15
23 22 22 22 22 22 23 23 22 22 22 22 21 21 21 20 21 21 21 21 21 21 21 21 21 21 22 22 22 21 21 21 20 19 18 18 17 17 16 16 16 15 15 15
23 23 22 22 22 23 22 22 21 21 21 20 20 19 19 19 19 20 20 20 20 21 21 21 21 21 21 21 21 21 21 20 20 19 18 18 17 17 16 16 16 15 15 15
21 22 21 21 22 22 21 21 20 19 19 19 18 18 18 18 18 18 19 19 19 20 20 20 20 20 20 20 20 20 20 20 20 19 18 18 17 16 16 16 15 15 15 15
19 19 19 19 20 20 20 19 18 18 17 17 17 17 17 17 17 17 17 18 18 18 19 19 19 19 19 19 19 20 20 19 19 18 18 17 17 16 16 16 15 15 15 15
18 18 18 18 19 18 18 17 17 16 16 16 16 16 16 16 16 16 16 17 17 17 18 18 18 19 19 19 19 19 19 19 18 18 17 17 16 16 16 16 15 15 15 14
Wind_Speed
11 9 8 9 10 5 4 2 2 1 2 4 8 9 8 9 10 9 9 10 11 11 11 11 10 9 7 6 4 8 5 4 4 3 1 2 2 2 2 2 4 3 4 6
10 10 10 9 7 5 5 4 4 2 2 4 8 11 10 11 12 11 10 10 10 9 10 11 11 9 7 7 5 6 6 5 5 3 1 1 1 1 1 1 2 3 5 5
10 8 9 8 6 6 6 4 3 4 6 8 10 10 10 8 8 8 8 7 7 9 10 13 12 10 8 7 7 5 6 6 6 4 1 2 1 2 1 1 2 1 1 3
5 4 8 7 6 7 4 3 3 5 7 6 8 7 7 5 7 7 7 6 6 5 7 11 12 10 10 8 7 7 7 6 6 4 3 1 1 1 1 1 1 1 2 2
4 4 6 7 6 5 2 3 6 8 9 10 11 8 3 5 6 7 8 8 7 6 8 10 11 10 9 9 8 6 7 6 5 4 5 2 1 1 1 1 1 1 2 1
3 5 6 3 2 1 2 7 10 10 8 9 8 5 3 2 4 4 5 7 8 7 7 9 10 10 9 9 8 7 7 6 6 3 3 4 2 0 1 1 0 2 1 1
6 7 5 2 3 4 6 7 4 4 3 4 4 3 1 6 7 4 2 3 7 8 8 9 10 10 10 10 9 8 8 7 7 6 5 4 4 3 3 1 0 2 1 1
5 7 8 6 7 5 7 8 5 3 5 6 6 3 4 8 7 4 2 1 1 6 8 10 11 11 10 10 10 9 8 7 7 6 6 4 5 3 1 1 1 2 1 2
2 3 7 6 5 6 6 6 7 7 10 10 5 1 5 7 7 5 4 5 5 5 7 9 11 11 11 11 10 9 9 8 8 7 6 5 3 3 1 1 2 0 0 2
4 2 6 5 4 7 8 8 5 5 5 7 7 5 3 5 3 2 3 6 7 7 8 9 10 11 11 11 10 10 9 8 8 7 5 4 2 3 2 2 1 1 1 2
7 3 5 7 7 9 9 8 7 6 6 6 6 5 3 3 4 2 2 3 6 8 8 9 9 10 10 11 11 10 9 8 8 7 6 6 5 4 4 3 2 2 2 1
5 5 5 8 7 4 6 8 8 6 7 7 8 6 0 4 4 2 2 2 4 6 8 9 10 10 10 11 11 11 10 9 8 7 6 6 6 5 5 4 4 4 3 2
7 5 5 2 1 3 6 8 8 8 8 9 10 6 1 0 2 3 4 4 4 6 8 9 10 10 10 10 10 10 10 9 9 8 6 6 7 6 5 4 4 3 2 2
4 9 10 9 7 5 7 8 9 9 8 11 12 12 9 7 6 5 4 5 5 7 9 9 10 10 10 11 10 10 10 9 10 9 7 7 7 7 6 5 3 3 2 2
6 11 14 14 12 11 12 12 12 13 13 14 15 14 11 10 8 7 6 4 5 6 8 9 11 11 11 11 11 10 10 10 10 10 9 8 7 7 6 5 5 4 3 3
7 11 14 15 15 15 16 15 15 15 14 14 13 11 9 9 7 7 7 6 4 5 6 8 10 12 12 13 12 11 11 11 10 10 10 8 7 7 7 5 5 4 3 3
9 12 14 15 16 17 15 13 12 10 8 9 9 8 8 9 8 7 7 6 5 4 4 6 8 10 12 14 14 12 12 11 11 10 10 9 8 7 7 7 6 5 5 5
14 14 10 13 15 17 10 7 5 5 7 7 7 7 8 8 7 4 5 6 5 4 3 5 6 8 10 12 13 13 12 12 12 11 10 10 9 8 8 7 6 5 5 5
14 12 10 11 13 13 10 8 7 6 5 6 6 7 9 10 8 4 8 8 7 5 3 3 5 6 8 10 12 13 13 12 12 11 11 11 11 9 9 8 7 6 5 4
8 9 9 10 13 12 7 7 6 5 4 7 8 9 10 10 7 7 11 10 9 6 4 3 3 4 6 8 10 12 13 13 12 12 11 11 11 10 9 8 7 5 5 5
6 7 10 11 14 10 6 6 4 4 5 10 11 11 12 10 9 10 12 11 9 6 5 4 3 3 4 5 8 11 11 12 12 11 10 9 10 10 9 7 6 4 5 5
10 8 9 10 12 6 9 7 6 7 9 10 11 11 12 12 13 12 12 11 10 8 5 4 3 3 3 3 6 9 10 10 10 11 10 9 9 9 8 8 6 5 5 4
8 7 7 7 6 5 6 7 8 9 10 10 11 11 12 13 13 13 12 11 10 8 6 4 4 4 4 3 5 7 8 9 10 11 11 9 9 8 8 8 7 5 5 4
12 13 12 12 10 12 11 8 8 10 12 12 11 12 13 13 14 13 12 11 10 8 7 5 5 5 5 5 5 5 6 9 10 11 11 10 9 8 8 6 5 4 4 3
13 13 14 17 15 14 10 10 11 12 13 14 14 13 13 14 14 13 12 12 10 9 7 6 6 6 6 6 6 6 6 9 10 11 11 10 9 9 8 6 3 5 3 3
15 15 15 14 13 12 13 14 14 14 14 15 15 15 14 13 13 13 13 11 10 10 9 8 7 7 7 7 7 7 8 9 10 11 11 9 9 8 8 8 6 9 7 9
Wind_Direction
179 194 199 208 211 235 278 292 285 278 183 238 256 259 249 215 207 217 214 209 204 194 178 159 150 143 149 156 145 122 132 127 107 79 27 32 43 357 51 56 64 7 2 3
179 205 206 210 217 237 274 296 289 295 256 261 272 270 255 226 209 208 221 213 205 189 169 152 150 149 165 157 147 137 135 113 103 100 50 142 80 308 99 69 80 32 19 7
186 197 204 210 217 226 240 254 275 312 302 279 275 271 259 225 197 193 209 230 224 189 176 159 158 156 163 158 152 146 127 132 119 130 89 30 13 287 52 48 80 53 43 22
197 187 188 199 220 234 251 309 297 285 290 288 274 288 269 204 172 185 193 213 231 194 164 153 156 159 163 159 151 149 136 125 123 133 103 12 290 47 64 35 86 300 100 59
188 176 192 209 222 238 241 281 283 276 276 280 273 275 283 151 173 181 181 193 205 191 165 156 155 158 160 151 145 142 132 129 128 128 133 225 333 26 34 15 59 336 123 151
174 192 208 217 219 290 289 268 260 253 260 270 268 277 303 113 98 105 150 175 182 180 165 156 149 146 145 137 139 140 138 136 136 156 175 199 159 228 279 287 37 309 214 141
181 190 184 213 232 218 241 265 283 277 246 276 280 263 243 83 76 63 72 151 168 169 169 157 150 150 147 146 150 155 155 156 164 184 205 196 177 212 235 206 154 280 310 95
194 184 184 198 236 243 228 253 270 306 308 303 283 248 118 106 104 103 104 82 125 166 167 161 157 157 156 158 161 171 170 170 173 194 209 200 180 200 202 148 264 260 18 80
273 164 162 183 228 268 264 252 277 286 287 292 298 324 126 123 133 153 182 180 194 188 163 162 160 162 163 168 172 179 176 178 180 197 202 201 185 164 147 208 242 227 48 88
307 156 175 174 223 240 270 301 304 289 302 304 311 326 47 97 85 118 184 191 194 182 170 170 165 169 171 174 176 181 183 186 181 189 198 177 169 157 163 245 319 21 349 92
295 269 183 184 215 235 219 242 261 277 277 288 303 316 344 66 73 33 297 200 181 173 173 172 168 173 173 171 173 179 185 189 179 184 190 173 178 187 193 197 180 210 254 207
306 302 255 225 215 244 273 271 276 280 290 301 297 293 86 118 132 177 265 258 190 172 170 169 168 171 175 176 178 182 187 185 175 180 187 178 169 185 207 193 188 210 208 204
341 297 294 263 197 223 250 257 267 278 283 282 283 287 311 217 216 217 217 228 202 175 176 173 170 176 180 180 181 182 183 177 168 174 188 182 184 190 195 196 182 213 209 210
307 285 287 281 277 278 258 260 262 266 272 276 279 291 305 315 316 306 269 234 216 189 185 181 176 181 181 181 184 187 182 172 168 171 186 197 195 181 184 184 171 208 217 232
270 280 290 295 294 289 285 280 274 269 270 276 284 291 304 310 311 307 295 266 231 208 194 188 182 184 183 185 188 189 180 172 174 174 186 197 197 175 174 169 180 202 202 241
275 283 290 290 289 284 279 274 269 267 268 274 282 289 305 306 317 319 312 301 265 229 213 203 192 189 188 190 191 190 180 176 177 180 186 189 190 170 167 173 185 193 196 242
283 285 289 289 295 295 281 278 276 279 289 294 295 306 322 324 322 320 321 315 301 267 241 218 208 196 194 195 191 189 183 178 182 186 183 178 181 172 172 186 187 189 203 218
265 276 284 286 290 281 285 302 305 292 292 301 308 329 333 325 314 321 336 328 315 292 258 233 223 206 195 195 187 182 177 178 184 187 182 175 177 176 177 186 189 195 216 214
241 255 267 275 277 278 288 302 305 296 304 334 334 345 348 338 324 6 12 358 342 328 304 258 236 217 202 196 184 177 178 182 185 185 181 175 175 176 179 186 192 202 213 218
230 242 254 264 273 279 302 343 358 323 302 10 10 5 355 353 343 351 356 351 342 338 330 303 269 241 213 199 180 176 180 183 185 182 181 178 175 173 179 186 192 196 198 207
251 245 245 259 267 274 338 358 340 296 2 19 14 7 4 357 346 339 342 343 340 337 328 318 286 269 234 197 177 179 184 187 181 172 174 173 168 169 174 179 181 188 195 198
293 289 276 270 269 280 29 13 10 5 5 8 7 1 354 344 338 338 337 335 332 329 322 314 295 283 265 207 181 186 191 181 164 160 165 168 166 172 175 169 178 189 187 194
282 288 300 297 307 347 17 6 6 359 349 355 352 349 342 334 331 330 328 327 324 321 314 306 287 273 262 234 199 196 189 165 155 157 164 168 168 168 163 166 176 184 185 192
293 311 306 297 296 316 327 340 354 352 344 341 340 338 334 328 325 324 322 321 321 320 317 300 283 266 257 245 223 206 178 161 159 164 169 171 174 168 161 159 166 167 173 180
298 304 297 293 299 307 315 336 342 339 335 331 329 326 323 321 319 319 318 319 319 316 310 301 281 264 255 248 228 208 187 176 176 176 176 179 175 167 159 140 126 147 123 141
272 278 279 285 305 309 316 330 332 326 323 322 321 318 316 315 315 317 316 316 316 315 311 304 292 275 260 250 238 212 194 189 190 188 183 180 174 165 155 141 107 68 101 102
Height
1478 1482 1485 1482 1481 1482 1484 1487 1491 1486 1481 1483 1484 1482 1479 1479 1481 1483 1485 1487 1489 1492 1494 1497 1501 1504 1507 1509 1510 1510 1510 1511 1510 1510 1510 1510 1509 1509 1508 1508 1506 1505 1505 1503
1480 1481 1477 1475 1477 1481 1484 1488 1489 1484 1480 1482 1482 1478 1473 1472 1474 1477 1480 1482 1484 1487 1491 1494 1498 1501 1505 1507 1508 1509 1509 1509 1509 1509 1509 1509 1508 1508 1508 1507 1506 1505 1504 1503
1478 1476 1473 1475 1479 1483 1485 1488 1489 1488 1482 1479 1481 1480 1471 1466 1469 1472 1476 1479 1481 1484 1487 1491 1495 1498 1502 1505 1506 1507 1508 1508 1508 1508 1508 1508 1508 1507 1507 1507 1506 1504 1503 1502
1475 1472 1474 1477 1481 1482 1488 1482 1482 1485 1489 1490 1482 1492 1472 1464 1467 1470 1473 1477 1480 1482 1485 1488 1492 1496 1499 1502 1504 1506 1506 1507 1506 1507 1507 1507 1507 1507 1506 1506 1505 1504 1503 1502
1478 1475 1477 1480 1478 1477 1482 1480 1480 1481 1485 1487 1480 1485 1474 1463 1468 1468 1470 1474 1477 1480 1483 1487 1490 1493 1497 1499 1502 1504 1504 1505 1505 1505 1505 1506 1506 1506 1506 1505 1505 1504 1503 1502
1475 1473 1474 1474 1474 1476 1477 1479 1479 1479 1484 1496 1480 1483 1481 1467 1467 1466 1468 1471 1475 1478 1482 1485 1488 1491 1495 1497 1499 1501 1502 1503 1503 1504 1504 1504 1505 1505 1505 1504 1504 1504 1503 1502
1477 1474 1472 1474 1477 1478 1479 1487 1497 1499 1500 1496 1472 1477 1476 1464 1463 1466 1468 1470 1473 1476 1479 1483 1486 1489 1492 1494 1496 1498 1500 1501 1501 1502 1503 1503 1503 1503 1504 1504 1504 1503 1503 1502
1479 1482 1472 1473 1476 1478 1478 1482 1501 1514 1509 1493 1475 1476 1468 1460 1462 1466 1469 1471 1472 1474 1477 1480 1483 1486 1489 1491 1493 1496 1497 1498 1499 1500 1501 1502 1503 1502 1503 1503 1503 1503 1502 1501
1475 1478 1468 1469 1471 1473 1477 1479 1475 1487 1489 1492 1479 1468 1462 1459 1462 1465 1468 1470 1472 1473 1476 1478 1481 1484 1486 1489 1491 1493 1495 1496 1497 1498 1500 1501 1501 1501 1502 1501 1502 1502 1501 1500
1467 1477 1472 1471 1473 1473 1474 1474 1479 1488 1500 1504 1490 1478 1475 1467 1465 1464 1466 1468 1469 1472 1474 1476 1479 1481 1484 1486 1488 1490 1492 1494 1495 1496 1498 1499 1499 1500 1500 1500 1500 1500 1500 1499
1465 1473 1475 1474 1477 1476 1475 1478 1478 1482 1485 1498 1503 1490 1462 1462 1462 1463 1464 1465 1467 1469 1471 1474 1476 1479 1481 1483 1485 1488 1489 1491 1493 1494 1495 1497 1497 1498 1498 1498 1499 1499 1499 1498
1466 1471 1477 1472 1465 1466 1469 1472 1476 1489 1490 1486 1494 1486 1457 1458 1459 1461 1462 1463 1464 1466 1468 1470 1473 1476 1478 1480 1482 1484 1486 1488 1490 1491 1493 1494 1495 1496 1496 1497 1497 1497 1498 1498
1471 1475 1484 1483 1479 1473 1472 1470 1471 1475 1482 1487 1493 1482 1455 1456 1457 1458 1459 1460 1461 1463 1465 1467 1469 1472 1474 1477 1479 1481 1483 1485 1486 1488 1490 1492 1493 1494 1495 1495 1496 1496 1496 1497
1475 1475 1481 1490 1482 1472 1472 1470 1469 1474 1484 1484 1479 1471 1460 1457 1456 1456 1456 1456 1457 1459 1461 1463 1465 1467 1470 1472 1475 1477 1479 1481 1483 1485 1487 1489 1490 1491 1492 1493 1494 1494 1495 1495
1473 1476 1472 1468 1464 1464 1466 1466 1466 1469 1470 1475 1470 1466 1460 1456 1454 1453 1453 1453 1454 1455 1457 1458 1460 1463 1465 1468 1471 1473 1475 1477 1479 1481 1483 1485 1487 1489 1490 1491 1492 1492 1493 1493
1471 1474 1472 1471 1464 1462 1463 1460 1459 1461 1460 1462 1461 1461 1454 1452 1451 1451 1451 1451 1451 1451 1453 1454 1456 1458 1460 1463 1466 1469 1471 1473 1475 1478 1480 1482 1484 1486 1487 1488 1489 1490 1491 1491
1473 1474 1478 1477 1466 1464 1467 1456 1454 1454 1453 1456 1461 1458 1451 1451 1450 1450 1449 1449 1449 1449 1449 1450 1451 1453 1455 1457 1460 1463 1466 1469 1472 1474 1476 1478 1481 1482 1484 1485 1487 1487 1488 1489
1473 1474 1475 1476 1474 1483 1461 1446 1447 1450 1451 1451 1451 1451 1450 1450 1449 1448 1448 1448 1446 1446 1446 1446 1447 1448 1450 1453 1456 1459 1462 1465 1467 1470 1472 1474 1477 1479 1480 1482 1483 1484 1485 1486
1464 1470 1476 1477 1479 1470 1456 1448 1446 1450 1452 1450 1450 1450 1450 1449 1447 1447 1447 1447 1446 1444 1443 1443 1443 1444 1446 1449 1451 1454 1457 1460 1463 1465 1468 1470 1472 1474 1476 1478 1480 1481 1482 1483
1460 1463 1471 1474 1479 1478 1461 1449 1446 1450 1457 1452 1451 1452 1452 1450 1452 1450 1448 1446 1444 1443 1442 1441 1440 1441 1442 1444 1447 1449 1452 1455 1458 1460 1463 1466 1468 1470 1472 1474 1476 1478 1479 1479
1465 1466 1470 1473 1473 1464 1454 1450 1449 1462 1464 1456 1455 1456 1455 1455 1455 1453 1449 1447 1444 1442 1440 1439 1438 1438 1439 1441 1443 1445 1447 1450 1453 1456 1459 1462 1464 1466 1468 1470 1472 1474 1475 1476
1466 1468 1467 1465 1469 1467 1456 1454 1459 1462 1459 1458 1458 1458 1458 1457 1454 1452 1449 1447 1444 1441 1439 1438 1436 1436 1436 1437 1439 1441 1443 1446 1449 1451 1454 1457 1460 1462 1464 1466 1468 1469 1471 1472
1463 1463 1463 1463 1464 1459 1458 1460 1461 1461 1460 1460 1460 1459 1458 1456 1454 1451 1449 1446 1443 1440 1438 1436 1435 1434 1434 1434 1435 1436 1439 1442 1444 1446 1449 1452 1455 1457 1459 1461 1463 1465 1467 1468
1465 1463 1462 1461 1457 1457 1458 1459 1460 1461 1461 1460 1459 1458 1457 1455 1452 1450 1447 1444 1441 1438 1436 1434 1432 1431 1431 1431 1432 1433 1435 1437 1439 1441 1444 1447 1450 1452 1455 1456 1458 1460 1462 1463
1471 1468 1466 1464 1461 1459 1459 1460 1460 1460 1459 1459 1458 1457 1455 1453 1450 1447 1444 1441 1438 1435 1433 1431 1430 1428 1427 1427 1428 1429 1430 1432 1434 1436 1438 1441 1444 1447 1449 1451 1453 1455 1457 1459
1470 1468 1467 1464 1463 1462 1460 1460 1459 1458 1457 1457 1455 1453 1452 1450 1447 1444 1441 1438 1435 1432 1429 1427 1425 1424 1423 1423 1423 1423 1425 1426 1428 1430 1433 1435 1438 1441 1443 1445 1448 1450 1452 1454